Location: Cochran
(32.3868°N, 83.3546°W)
Time: 11:43:34
(UTC+00:00)

YAOGAN 6 - Pass Details

Date: 18 February 2020
Orbit: 467 x 503 km, 97.0° (Epoch: 05 April)

Event Time Altitude Azimuth Distance (km) Brightness Sun altitude
Rises 23:47:52 0° 175° (S) 2,524 6.3 -6.3°
Reaches altitude 10° 23:49:56 10° 179° (S) 1,644 5.4 -6.7°
Maximum altitude 23:53:26 60° 260° (W) 547 3.2 -7.4°
Drops below altitude 10° 23:56:54 10° 341° (NNW) 1,638 5.4 -8.1°
Sets 23:58:59 0° 345° (NNW) 2,515 6.3 -8.6°
